timestamp,surface_pressure_avg,surface_temp_avg,battery_voltage,lat,long
2022-03-02 00:09:01+00:00,347.8379,1.04,12.09,47.84626,-54.09684
2022-03-02 00:19:01+00:00,352.3912,1.03,12.09,47.84626,-54.09684
2022-03-02 00:29:01+00:00,349.5029,1.02,12.09,47.84626,-54.09684
2022-03-02 00:39:01+00:00,335.5496,1.0,12.09,47.84626,-54.09684
2022-03-02 00:49:01+00:00,332.1330000000001,1.0,12.09,47.84626,-54.09684
2022-03-02 00:59:01+00:00,333.1912,1.0,12.09,47.84626,-54.09684
2022-03-02 01:09:01+00:00,324.8863,1.0,12.09,47.84626,-54.09684
2022-03-02 01:19:00+00:00,317.8214,1.0,12.09,47.84626,-54.09684
2022-03-02 01:29:00+00:00,315.8163,1.0,12.09,47.84626,-54.09684
2022-03-02 01:39:00+00:00,307.0964,0.99,12.09,47.84626,-54.09684
2022-03-02 01:49:00+00:00,288.8646,0.97,12.09,47.84626,-54.09684
2022-03-02 01:59:00+00:00,279.3663,0.98,12.09,47.84626,-54.09684
2022-03-02 02:09:00+00:00,274.928,0.98,12.09,47.84626,-54.09684
2022-03-02 02:19:01+00:00,262.1197,0.97,12.01,47.84626,-54.09684
2022-03-02 02:29:01+00:00,250.3231,0.98,12.01,47.84626,-54.09684
2022-03-02 02:39:01+00:00,250.3797,0.98,12.01,47.84626,-54.09684
2022-03-02 02:49:01+00:00,244.3748,0.97,12.01,47.84626,-54.09684
2022-03-02 02:59:01+00:00,230.0281,0.93,12.01,47.84626,-54.09684
2022-03-02 03:09:01+00:00,227.3914,0.9,12.01,47.84626,-54.09684
2022-03-02 03:19:00+00:00,225.9281,0.9,12.01,47.84626,-54.09684
2022-03-02 03:29:00+00:00,211.1731,0.9,12.01,47.84626,-54.09684
2022-03-02 03:39:00+00:00,200.4264,0.9,12.01,47.84626,-54.09684
2022-03-02 03:49:00+00:00,202.8831,0.9,12.01,47.84626,-54.09684
2022-03-02 03:59:00+00:00,198.5931,0.9,12.01,47.84626,-54.09684
2022-03-02 04:09:00+00:00,189.1448,0.9,12.01,47.84626,-54.09684
2022-03-02 04:19:01+00:00,188.3198,0.9,12.01,47.84626,-54.09684
2022-03-02 04:29:01+00:00,190.9881,0.9,12.01,47.84626,-54.09684
2022-03-02 04:39:01+00:00,185.2348,0.9,12.01,47.84626,-54.09684
2022-03-02 04:49:01+00:00,178.7032,0.9,12.01,47.84626,-54.09684
2022-03-02 04:59:01+00:00,179.9114,0.9,12.01,47.84626,-54.09684
2022-03-02 05:09:01+00:00,180.6148,0.97,12.01,47.84626,-54.09684
2022-03-02 05:19:00+00:00,175.6714,0.98,12.01,47.84626,-54.09684
2022-03-02 05:29:00+00:00,173.6982,0.98,12.01,47.84626,-54.09684
2022-03-02 05:39:00+00:00,177.7082,1.0,12.01,47.84626,-54.09684
2022-03-02 05:49:00+00:00,177.6448,1.0,12.01,47.84626,-54.09684
2022-03-02 05:59:00+00:00,174.1398,1.0,12.01,47.84626,-54.09684
2022-03-02 06:09:00+00:00,175.1481,1.0,12.01,47.84626,-54.09684
2022-03-02 06:19:00+00:00,178.2948,1.0,12.01,47.84626,-54.09684
2022-03-02 06:29:00+00:00,180.1498,1.0,12.01,47.84626,-54.09684
2022-03-02 06:39:00+00:00,188.0031,1.0,12.01,47.84626,-54.09684
2022-03-02 06:49:00+00:00,195.9631,1.0,12.01,47.84626,-54.09684
2022-03-02 06:59:00+00:00,199.7264,1.0,12.01,47.84626,-54.09684
2022-03-02 07:09:00+00:00,208.1698,1.0,12.01,47.84626,-54.09684
2022-03-02 07:19:00+00:00,217.0664,0.91,12.01,47.84626,-54.09684
2022-03-02 07:29:00+00:00,222.6031,0.9,12.01,47.84626,-54.09684
2022-03-02 07:39:00+00:00,228.9464,0.9,12.01,47.84626,-54.09684
2022-03-02 07:49:00+00:00,237.4898,0.89,12.01,47.84626,-54.09684
2022-03-02 07:59:00+00:00,243.4414,0.89,12.01,47.84626,-54.09684
2022-03-02 08:09:00+00:00,247.5663,0.9,12.01,47.84626,-54.09684
2022-03-02 08:19:01+00:00,252.2181,0.9,12.01,47.84626,-54.09684
2022-03-02 08:29:01+00:00,260.3531,0.89,12.01,47.84626,-54.09684
2022-03-02 08:39:01+00:00,268.6231,0.9,12.01,47.84626,-54.09684
2022-03-02 08:49:01+00:00,277.7947,0.89,12.01,47.84626,-54.09684
2022-03-02 08:59:01+00:00,288.4979,0.8,12.01,47.84626,-54.09684
2022-03-02 09:09:01+00:00,297.988,0.7,12.01,47.84626,-54.09684
2022-03-02 09:19:00+00:00,304.1497,0.61,12.01,47.84626,-54.09684
2022-03-02 09:29:00+00:00,310.1846,0.6,12.01,47.84626,-54.09684
2022-03-02 09:39:00+00:00,314.5313,0.6,12.01,47.84626,-54.09684
2022-03-02 09:49:00+00:00,321.603,0.67,12.01,47.84626,-54.09684
2022-03-02 09:59:00+00:00,328.9097,0.7,12.01,47.84626,-54.09684
2022-03-02 10:09:00+00:00,335.0914,0.7,12.01,47.84626,-54.09684
2022-03-02 10:19:01+00:00,337.4779,0.7,12.01,47.84626,-54.09684
2022-03-02 10:29:01+00:00,343.4246,0.75,12.01,47.84626,-54.09684
2022-03-02 10:39:01+00:00,357.3412,0.7,12.01,47.84626,-54.09684
2022-03-02 10:49:01+00:00,366.56800000000004,0.74,12.01,47.84626,-54.09684
2022-03-02 10:59:01+00:00,361.6863,0.8,12.01,47.84626,-54.09684
2022-03-02 11:09:01+00:00,363.6564,0.8,12.01,47.84626,-54.09684
2022-03-02 11:19:00+00:00,372.528,0.8,12.01,47.84626,-54.09684
2022-03-02 11:29:00+00:00,376.8163,0.84,12.01,47.84626,-54.09684
2022-03-02 11:39:00+00:00,368.9179,0.89,12.01,47.84626,-54.09684
2022-03-02 11:49:00+00:00,369.5796,0.9,12.01,47.84626,-54.09684
2022-03-02 11:59:00+00:00,376.2496,0.89,12.01,47.84626,-54.09684
2022-03-02 12:09:00+00:00,371.3946,0.9,12.01,47.84626,-54.09684
2022-03-02 12:19:01+00:00,364.6662,0.9,12.01,47.84626,-54.09684
2022-03-02 12:29:01+00:00,369.3112,0.9,12.01,47.84626,-54.09684
2022-03-02 12:39:01+00:00,377.6478,0.9,12.01,47.84626,-54.09684
2022-03-02 12:49:01+00:00,366.288,0.9,12.01,47.84626,-54.09684
2022-03-02 12:59:01+00:00,353.5762,0.9,12.01,47.84626,-54.09684
2022-03-02 13:09:01+00:00,361.74800000000016,0.9,12.01,47.84626,-54.09684
2022-03-02 13:19:00+00:00,360.1546,0.9,12.01,47.84626,-54.09684
2022-03-02 13:29:00+00:00,344.2646,0.9,12.01,47.84626,-54.09684
2022-03-02 13:39:00+00:00,337.9529,0.9,12.01,47.84626,-54.09684
2022-03-02 13:49:00+00:00,339.1096,0.9,12.01,47.84626,-54.09684
2022-03-02 13:59:00+00:00,327.6796,0.93,12.01,47.84626,-54.09684
2022-03-02 14:09:00+00:00,314.5646,0.94,12.01,47.84626,-54.09684
2022-03-02 14:19:00+00:00,312.053,0.93,12.01,47.84626,-54.09684
2022-03-02 14:29:00+00:00,301.783,0.93,12.01,47.84626,-54.09684
2022-03-02 14:39:00+00:00,289.5547,0.97,12.01,47.84626,-54.09684
2022-03-02 14:49:00+00:00,283.9847,0.96,12.01,47.84626,-54.09684
2022-03-02 14:59:00+00:00,279.9631,0.97,12.01,47.84626,-54.09684
2022-03-02 15:09:00+00:00,267.9298,0.98,12.01,47.84626,-54.09684
2022-03-02 15:19:00+00:00,259.3747,1.0,12.01,47.84626,-54.09684
2022-03-02 15:29:00+00:00,254.5781,0.99,12.01,47.84626,-54.09684
2022-03-02 15:39:00+00:00,246.0564,0.99,12.01,47.84626,-54.09684
2022-03-02 15:49:00+00:00,232.7114,1.0,12.01,47.84626,-54.09684
2022-03-02 15:59:00+00:00,224.5098,1.0,12.01,47.84626,-54.09684
2022-03-02 16:09:00+00:00,215.5547,1.0,12.01,47.84626,-54.09684
2022-03-02 16:19:01+00:00,206.5198,1.0,12.09,47.84626,-54.09684
2022-03-02 16:29:01+00:00,203.9748,1.0,12.09,47.84626,-54.09684
2022-03-02 16:39:01+00:00,201.7798,1.0,12.09,47.84626,-54.09684
2022-03-02 16:49:01+00:00,197.5548,1.0,12.09,47.84626,-54.09684
2022-03-02 16:59:01+00:00,193.4348,1.07,12.09,47.84626,-54.09684
2022-03-02 17:09:01+00:00,189.9315,1.09,12.09,47.84626,-54.09684
2022-03-02 17:19:00+00:00,188.5481,1.1,12.09,47.84626,-54.09684
2022-03-02 17:29:00+00:00,186.2898,1.1,12.09,47.84626,-54.09684
2022-03-02 17:39:00+00:00,180.3831,1.08,12.09,47.84626,-54.09684
2022-03-02 17:49:00+00:00,175.3948,1.09,12.09,47.84626,-54.09684
2022-03-02 17:59:00+00:00,174.1015,1.1,12.09,47.84626,-54.09684
2022-03-02 18:09:00+00:00,178.8432,1.09,12.09,47.84626,-54.09684
2022-03-02 18:19:00+00:00,178.2731,1.1,12.09,47.84626,-54.09684
2022-03-02 18:29:00+00:00,176.1582,1.1,12.09,47.84626,-54.09684
2022-03-02 18:39:00+00:00,182.3348,1.1,12.09,47.84626,-54.09684
2022-03-02 18:49:00+00:00,189.5298,1.1,12.09,47.84626,-54.09684
2022-03-02 18:59:00+00:00,192.5181,1.1,12.09,47.84626,-54.09684
2022-03-02 19:09:00+00:00,196.3031,1.1,12.09,47.84626,-54.09684
2022-03-02 19:19:01+00:00,203.0164,1.1,12.09,47.84626,-54.09684
2022-03-02 19:29:01+00:00,211.4881,1.1,12.09,47.84626,-54.09684
2022-03-02 19:39:01+00:00,215.0531,1.1,12.09,47.84626,-54.09684
2022-03-02 19:49:01+00:00,219.3098,1.1,12.09,47.84626,-54.09684
2022-03-02 19:59:01+00:00,228.0581,1.11,12.09,47.84626,-54.09684
2022-03-02 20:09:01+00:00,234.1498,1.1,12.09,47.84626,-54.09684
2022-03-02 20:19:00+00:00,237.9581,1.1,12.09,47.84626,-54.09684
2022-03-02 20:29:00+00:00,243.9847,1.1,12.09,47.84626,-54.09684
2022-03-02 20:39:00+00:00,252.0965,1.1,12.09,47.84626,-54.09684
2022-03-02 20:49:00+00:00,256.4848,1.1,12.09,47.84626,-54.09684
2022-03-02 20:59:00+00:00,260.5797,1.1,12.09,47.84626,-54.09684
2022-03-02 21:09:00+00:00,265.5698,1.1,12.09,47.84626,-54.09684
2022-03-02 21:19:00+00:00,271.6448,1.1,12.09,47.84626,-54.09684
2022-03-02 21:29:00+00:00,284.0547,1.1,12.09,47.84626,-54.09684
2022-03-02 21:39:00+00:00,295.2947,1.1,12.09,47.84626,-54.09684
2022-03-02 21:49:00+00:00,298.3279,1.1,12.09,47.84626,-54.09684
2022-03-02 21:59:00+00:00,303.9081,1.06,12.09,47.84626,-54.09684
2022-03-02 22:09:00+00:00,317.5563,1.06,12.09,47.84626,-54.09684
2022-03-02 22:19:01+00:00,327.3347,1.0,12.09,47.84626,-54.09684
2022-03-02 22:29:01+00:00,326.9412,1.0,12.09,47.84626,-54.09684
2022-03-02 22:39:01+00:00,334.898,1.0,12.09,47.84626,-54.09684
2022-03-02 22:49:01+00:00,344.1329,1.0,12.09,47.84626,-54.09684
2022-03-02 22:59:01+00:00,350.0131,1.0,12.09,47.84626,-54.09684
2022-03-02 23:09:01+00:00,353.6998,1.0,12.09,47.84626,-54.09684
2022-03-02 23:19:00+00:00,363.2863,0.99,12.09,47.84626,-54.09684
2022-03-02 23:29:00+00:00,370.8996,0.98,12.09,47.84626,-54.09684
2022-03-02 23:39:00+00:00,370.2812,0.91,12.09,47.84626,-54.09684
2022-03-02 23:49:00+00:00,369.0312,0.93,12.09,47.84626,-54.09684
2022-03-02 23:59:00+00:00,375.2112,0.93,12.09,47.84626,-54.09684
